Weather History for KICR - March, 2013

Change the Weather History Date:

Monday, March 4, 2013

  Actual Average Record
Temperature  
Mean Temperature 32 °F 32 °F  
Max Temperature 42 °F 43 °F 62 °F (2009)
Min Temperature 22 °F 22 °F -2 °F (2015)
Degree Days  
Heating Degree Days 33 33  
Month to date heating degree days 122 133  
Since 1 July heating degree days 4785 5142  
Cooling Degree Days 0 0  
Month to date cooling degree days 0 0  
Year to date cooling degree days 0 0  
Moisture  
Dew Point 24 °F    
Average Humidity 68    
Maximum Humidity 100    
Minimum Humidity 36    
Precipitation  
Precipitation T in 0.01 in 0.01 in (2012)
Month to date precipitation T 0.05  
Year to date precipitation T 0.81  
Sea Level Pressure  
Sea Level Pressure 29.84 in    
Wind  
Wind Speed 22 mph (NW)    
Max Wind Speed 39 mph    
Max Gust Speed 51 mph    
Visibility 7 miles    
Events Fog , Snow    
T = Trace of Precipitation, MM = Missing Value Source: NWS Daily Summary

Daily Weather History Graph

Daily Weather History Graph

Search for Another Location

Airport or City:

Trip Planner

Search our weather history database for the weather conditions in past years. The results will help you decide how hot, cold, wet, or windy it might be!

Date:

Astronomy

Mar. 04, 2013 Rise Set
Actual Time 7:10 AM CST 6:32 PM CST
Civil Twilight 6:41 AM CST 7:01 PM CST
Nautical Twilight 6:08 AM CST 7:34 PM CST
Astronomical Twilight 5:35 AM CST 8:07 PM CST
Moon 1:28 AM CST (3/4) 11:08 AM CST (3/4)
Length of Visible Light 12h 19m
Length of Day
11h 22m
Waning Gibbous, 52% of the Moon is Illuminated
Mar 4
Waning Gibbous
Mar 4
Last Quarter
Mar 11
New
Mar 19
First Quarter
Mar 27
Full

Hourly Weather History & Observations

Time (CST) Temp. Windchill Dew Point Humidity Pressure Visibility Wind Dir Wind Speed Gust Speed Precip Events Conditions
12:53 AM 32.0 °F 23.6 °F 30.0 °F 92% 29.56 in 4.0 mi ESE 10.4 mph - N/A   Scattered Clouds
1:35 AM 30.2 °F 22.6 °F 30.2 °F 100% 29.59 in 4.0 mi West 8.1 mph - N/A   Scattered Clouds
1:44 AM 30.2 °F 25.4 °F 30.2 °F 100% 29.58 in 4.0 mi Variable 4.6 mph - N/A   Mostly Cloudy
1:53 AM 32.0 °F - 30.0 °F 92% 29.62 in 4.0 mi Calm Calm - N/A   Overcast
2:04 AM 32.0 °F 28.7 °F 30.2 °F 93% 29.59 in 3.0 mi ENE 3.5 mph - N/A   Overcast
2:46 AM 32.0 °F 23.6 °F 30.2 °F 93% 29.62 in 2.5 mi WNW 10.4 mph - N/A   Overcast
2:53 AM 32.0 °F 23.6 °F 30.0 °F 92% 29.66 in 2.5 mi NW 10.4 mph - N/A   Overcast
3:04 AM 30.2 °F 19.8 °F 30.2 °F 100% 29.64 in 1.8 mi NW 13.8 mph - N/A   Overcast
3:53 AM 32.0 °F 20.8 °F 30.9 °F 96% 29.69 in 1.2 mi NW 17.3 mph - N/A   Overcast
4:12 AM 32.0 °F 22.5 °F 30.2 °F 93% 29.67 in 0.5 mi NW 12.7 mph - N/A Fog Fog
4:53 AM 33.1 °F 22.6 °F 32.0 °F 96% 29.72 in 0.5 mi NW 16.1 mph 25.3 mph N/A Fog Fog
5:07 AM 33.8 °F 23.5 °F 33.8 °F 100% 29.70 in 2.0 mi NW 16.1 mph - N/A   Overcast
5:10 AM 33.8 °F 23.2 °F 33.8 °F 100% 29.70 in 3.0 mi NW 17.3 mph - N/A   Overcast
5:17 AM 33.8 °F 22.8 °F 33.8 °F 100% 29.70 in 5.0 mi NW 18.4 mph 25.3 mph N/A   Overcast
5:45 AM 33.8 °F 23.5 °F 32.0 °F 93% 29.71 in 10.0 mi NW 16.1 mph - N/A   Mostly Cloudy
5:53 AM 34.0 °F 25.0 °F 32.0 °F 92% 29.75 in 10.0 mi NNW 12.7 mph - N/A   Mostly Cloudy
6:07 AM 33.8 °F 24.8 °F 32.0 °F 93% 29.72 in 10.0 mi NW 12.7 mph - N/A   Scattered Clouds
6:53 AM 30.9 °F 22.2 °F 30.0 °F 96% 29.78 in 10.0 mi West 10.4 mph - N/A   Clear
7:53 AM 33.1 °F 23.4 °F 30.0 °F 89% 29.81 in 10.0 mi WNW 13.8 mph - N/A   Overcast
8:53 AM 35.1 °F 24.8 °F 27.0 °F 72% 29.84 in 10.0 mi WNW 17.3 mph 25.3 mph N/A   Partly Cloudy
9:53 AM 37.9 °F 25.9 °F 24.1 °F 57% 29.86 in 10.0 mi NW 28.8 mph 34.5 mph N/A   Clear
10:53 AM 37.9 °F 25.9 °F 21.0 °F 51% 29.87 in 10.0 mi NW 28.8 mph 36.8 mph N/A   Clear
11:53 AM 39.0 °F 28.3 °F 21.0 °F 49% 29.88 in 10.0 mi NW 24.2 mph 29.9 mph N/A   Clear
12:53 PM 41.0 °F 29.5 °F 19.0 °F 41% 29.86 in 10.0 mi NW 32.2 mph 38.0 mph N/A   Clear
1:53 PM 42.1 °F 31.9 °F 18.0 °F 38% 29.85 in 10.0 mi NW 26.5 mph 35.7 mph N/A   Clear
2:53 PM 39.9 °F 28.4 °F 16.0 °F 38% 29.86 in 10.0 mi NW 29.9 mph 39.1 mph N/A   Clear
3:53 PM 36.0 °F 23.5 °F 12.0 °F 37% 29.91 in 10.0 mi WNW 27.6 mph 43.7 mph N/A   Scattered Clouds
4:53 PM 33.1 °F 18.7 °F 10.9 °F 40% 29.96 in 10.0 mi WNW 32.2 mph 42.6 mph N/A   Overcast
5:53 PM 30.0 °F 13.2 °F 15.1 °F 54% 30.00 in 10.0 mi WNW 39.1 mph 50.6 mph N/A   Mostly Cloudy
6:53 PM 26.1 °F 11.0 °F 18.0 °F 71% 30.06 in 9.0 mi WNW 24.2 mph 35.7 mph 0.00 in   Scattered Clouds
7:02 PM 26.6 °F 10.8 °F 19.4 °F 74% 29.99 in 2.5 mi WNW 27.6 mph 40.3 mph 0.00 in Snow Light Snow
7:15 PM 24.8 °F 8.1 °F 19.4 °F 80% 30.01 in 6.0 mi WNW 28.8 mph - 0.00 in Snow Light Snow
7:53 PM 25.0 °F 7.8 °F 18.0 °F 75% 30.08 in 5.0 mi WNW 31.1 mph 41.4 mph 0.00 in Snow Light Snow
8:39 PM 24.8 °F 7.3 °F 17.6 °F 74% 30.02 in 2.5 mi WNW 32.2 mph 42.6 mph 0.00 in Snow Light Snow
8:50 PM 24.8 °F 7.1 °F 15.8 °F 69% 30.02 in 5.0 mi WNW 33.4 mph 46.0 mph 0.00 in Snow Light Snow
8:53 PM 25.0 °F 8.4 °F 15.1 °F 66% 30.09 in 8.0 mi WNW 28.8 mph 46.0 mph 0.00 in Snow Light Snow
9:13 PM 24.8 °F 6.4 °F 15.8 °F 69% 30.02 in 10.0 mi WNW 36.8 mph 46.0 mph 0.00 in   Overcast
9:53 PM 23.0 °F 6.3 °F 14.0 °F 68% 30.10 in 10.0 mi WNW 26.5 mph 44.9 mph 0.00 in   Overcast
10:53 PM 21.9 °F 3.7 °F 12.9 °F 68% 30.11 in 10.0 mi WNW 31.1 mph 47.2 mph 0.00 in   Overcast
11:00 PM 21.2 °F 1.9 °F 12.2 °F 68% 30.05 in 10.0 mi WNW 34.5 mph 46.0 mph 0.00 in   Overcast
11:53 PM 21.9 °F 1.9 °F 12.0 °F 66% 30.10 in 10.0 mi WNW 39.1 mph 47.2 mph 0.00 in   Overcast